Location: Recife
(8.0585°S, 34.8848°W)
Time: 19:14:03
(UTC-03:00)

N. Korean satellite - Pass Details

Date: 29 September 2021
Orbit: 450 x 495 km, 97.3° (Epoch: 21 October)

Event Time Altitude Azimuth Distance (km) Brightness Sun altitude
Rises 03:35:20 0° 33° (NNE) 2,558 10.6 -23.0°
Reaches altitude 10° 03:37:39 10° 47° (NE) 1,685 9.8 -22.4°
Maximum altitude 03:40:39 24° 102° (ESE) 1,051 9.0 -21.7°
Drops below altitude 10° 03:43:40 10° 158° (SSE) 1,700 9.6 -20.9°
Sets 03:46:01 0° 172° (S) 2,585 10.4 -20.3°
